#timestamp,LO_Frequency,Hit,StdDev 
1635872415.0,286047006.9,N
1635872416.0,286047006.9,N
1635872435.8,286047004.9,N
1635872455.6,286047007.4,Y
1635872475.5,286047000.3,P
1635872495.3,286046998.5,N
1635872515.1,286046998.2,N
1635872535.9,286046999.8,N
1635872555.7,286047002.8,N
1635872575.6,286047000.1,N
1635872595.4,286047002.0,N
1635872615.2,286047003.5,N
1635872635.1,286047004.2,N
1635872636.0,286047004.2,N
1635872655.8,286046999.7,N
1635872675.6,286047002.8,N
1635872695.5,286047000.9,N
1635872715.3,286047000.9,N
1635872735.1,286046998.2,N
1635872755.9,286047001.2,N
1635872775.7,286046996.5,N
1635872795.6,286046998.1,N
1635872815.4,286047001.2,N
1635872835.2,286047001.9,N
1635872855.1,286046999.7,N
1635872856.0,286046999.7,N
1635872875.8,286047002.8,N
1635872895.7,286047002.4,N
1635872915.5,286046999.9,N
1635872935.3,286046999.7,N
1635872955.2,286047000.3,N
1635872975.9,286046999.9,N
1635872995.7,286047001.1,N
1635873015.6,286047000.3,N
1635873035.4,286046999.9,N
1635873055.2,286047002.8,N
1635873075.1,286047002.7,N
1635873076.0,286047002.7,N
1635873095.8,286046999.7,N
1635873115.7,286047000.1,N
1635873135.5,286047000.9,N
1635873155.3,286046998.6,N
1635873175.2,286047000.5,N
1635873195.0,286046999.7,N
1635873195.9,286046999.7,N
1635873215.8,286047002.3,N
1635873235.6,286047002.5,N
1635873255.4,286047000.1,N
1635873275.3,286047002.0,N
1635873295.1,286047001.6,N
1635873315.8,286047004.1,N
1635873335.7,286047005.9,Y
1635873355.5,286047004.4,P
1635873375.4,286047003.2,N
1635873395.2,286047003.6,N
1635873415.0,286047001.9,N
1635873415.9,286047001.9,N
1635873435.8,286047004.2,Y
1635873455.6,286047000.1,P
1635873475.4,286046999.8,N
1635873495.3,286046999.9,N
1635873515.1,286047002.6,N
1635873535.9,286047000.3,N
1635873555.7,286047000.3,N
1635873575.5,286047002.8,N
1635873595.4,286047001.7,N
1635873615.2,286047002.3,N
1635873635.0,286047004.4,Y
1635873636.0,286047004.4,P
1635873655.8,286047002.1,N
1635873675.6,286047001.9,N
1635873695.5,286047001.6,N
1635873715.3,286047001.3,N
1635873735.1,286047004.4,Y
1635873755.9,286047002.5,P
1635873775.7,286047001.4,P
1635873795.6,286047001.9,P
1635873815.4,286047004.4,Y
1635873835.2,286047000.5,P
1635873855.1,286047000.3,N
1635873856.0,286047000.3,N
1635873875.8,286046998.6,N
1635873895.6,286047000.3,N
1635873915.5,286047000.3,N
1635873935.3,286047001.0,N
1635873955.2,286047000.1,N
1635873975.9,286047002.3,N
1635873995.7,286047002.6,N
1635874015.6,286047000.0,N
1635874035.4,286047000.2,N
1635874055.2,286047002.6,N
1635874075.1,286047000.3,N
1635874076.0,286047000.3,N
1635874095.8,286047001.6,N
1635874115.7,286046999.8,N
1635874135.5,286047000.2,N
1635874155.3,286047002.8,N
1635874175.2,286047002.1,N
1635874195.0,286047002.7,N
1635874195.9,286047002.7,N
1635874215.7,286047004.4,Y
1635874235.6,286047003.3,P
1635874255.4,286047003.1,N
1635874275.3,286047003.1,N
1635874295.1,286047003.1,Y
1635874296.0,286047003.1,P
1635874315.8,286047000.3,N
1635874335.7,286046999.8,N
1635874355.5,286047001.4,N
1635874375.4,286047004.1,Y
1635874395.2,286047004.0,P
1635874415.0,286047001.4,N
1635874415.9,286047001.4,N
1635874435.8,286047001.8,N
1635874455.6,286047002.6,N
1635874475.4,286047002.4,N
1635874495.3,286047002.6,N
1635874515.1,286047001.9,N
1635874535.9,286047002.5,Y
1635874555.7,286046996.7,P
1635874575.5,286046996.9,N
1635874595.4,286046998.4,N
1635874615.2,286047001.0,N
1635874635.0,286046999.3,N
1635874635.9,286046999.3,N
1635874655.8,286046998.8,N
1635874675.6,286047001.2,N
1635874695.5,286046999.7,N
1635874715.3,286047000.8,N
1635874735.1,286046998.5,N
1635874755.9,286046998.4,N
1635874775.7,286046996.6,N
1635874795.5,286046997.0,N
1635874815.4,286046999.1,N
1635874835.2,286046999.5,N
1635874855.1,286046998.9,N
1635874856.0,286046998.9,N
1635874875.8,286047000.7,N
1635874895.6,286047000.6,N
1635874915.5,286047001.2,N
1635874935.3,286046999.1,N
1635874955.1,286046997.6,N
1635874975.9,286046996.2,N
1635874995.7,286046999.1,N
1635875015.6,286046996.9,N
1635875035.4,286046995.2,Y
1635875055.2,286046995.6,P
1635875075.1,286046995.8,N
1635875106.0,286046995.3,E
1635875115.0,286046996.8,N
1635875115.9,286046996.8,P
1635875135.8,286046998.1,P
1635875155.6,286046998.9,N
1635875175.4,286047000.8,N
1635875195.3,286046998.5,N
1635875215.1,286047001.2,N
1635875235.8,286047002.7,N
1635875255.7,286047004.2,N
1635875275.5,286047001.3,N
1635875295.4,286047002.6,N
1635875315.2,286047002.0,N
1635875335.0,286047002.5,N
1635875335.9,286047002.5,N
1635875355.8,286046999.8,N
1635875375.6,286046999.8,N
1635875395.4,286047000.2,N
1635875415.3,286047002.3,N
1635875435.1,286047000.0,N
1635875455.9,286047000.6,N
1635875475.7,286046999.9,N
1635875495.5,286047000.9,N
1635875515.4,286047000.4,N
1635875535.2,286046998.2,N
1635875555.0,286046999.3,N
1635875555.9,286046999.3,N
1635875575.8,286046998.6,N
1635875595.6,286046998.5,N
1635875615.5,286046998.3,N
1635875635.3,286047000.7,N
1635875655.1,286046998.7,N
1635875675.9,286046999.8,N
1635875695.7,286047000.2,N
1635875715.5,286047000.3,N
1635875735.4,286046999.8,N
1635875755.2,286047000.1,N
1635875775.1,286047001.6,N
1635875776.0,286047001.6,N
1635875795.8,286047002.2,N
1635875815.6,286047001.9,N
1635875835.5,286046999.7,N
1635875855.3,286047002.3,N
1635875875.1,286047005.5,Y
1635875895.9,286047004.5,P
1635875915.7,286047004.5,N
1635875935.6,286047005.1,N
1635875955.4,286047003.6,N
1635875975.2,286047004.1,N
1635875995.1,286047003.6,N
1635875996.0,286047003.6,N
